Dashboard

GC7XB7T - 18# De Blauwbloezen

by Expie

published: Wed, 12 Sep 2018 8:04:00 am

Certitude Solution



Puzzle stats
125 Woo-Hoo!
18 D'Oh!
Latest activity:
Wed, 19 Sep 2018
Note that some of those attempts may have been anonymous.



You can subscribe to an RSS feed for:
 this puzzle
 Expie's puzzles
 puzzles in N50 E004 quadrangle
 puzzles in Vlaams-Brabant
 all puzzles

Your geocaching name is unknown, please sign in to identify yourself. How does it work?

Puzzle solvers, you can certify your solution here:
Show solution 
Show attempts 

(keyword required)
  Stay anonymous

Certified solvers

RankUserTime (Brussels, Europe)
1.dirk007Wed, 12 Sep 2018 8:08:38 am
2.DwiggerWed, 12 Sep 2018 8:32:02 am
3.KamaSnurkaWed, 12 Sep 2018 8:32:50 am
4.BriSan.Wed, 12 Sep 2018 8:32:54 am
5.KoidreamWed, 12 Sep 2018 8:33:24 am
6.metkerrekeWed, 12 Sep 2018 9:02:25 am
7.soyoyastWed, 12 Sep 2018 9:14:52 am
8.team fredstromWed, 12 Sep 2018 9:59:58 am
9.GeroMinosWed, 12 Sep 2018 10:20:27 am
10.brestWed, 12 Sep 2018 10:44:08 am
11.JoanyoWed, 12 Sep 2018 10:48:54 am
12.EveRan2013Wed, 12 Sep 2018 10:59:34 am
13.Hannah_NWed, 12 Sep 2018 10:59:39 am
14.johnny lightningWed, 12 Sep 2018 11:03:48 am
15.Sabbi17Wed, 12 Sep 2018 11:15:16 am
16.JeankeMotarWed, 12 Sep 2018 11:35:08 am
17.HuntingBWed, 12 Sep 2018 11:57:48 am
18.kadeekesWed, 12 Sep 2018 12:16:03 pm
19.Christelle & FionaWed, 12 Sep 2018 12:50:17 pm
20.The CloudWed, 12 Sep 2018 1:16:05 pm
21.LiaIneWed, 12 Sep 2018 1:57:30 pm
22.Edine4geoWed, 12 Sep 2018 2:21:21 pm
23.rickrichWed, 12 Sep 2018 2:26:26 pm
24.lifraWed, 12 Sep 2018 2:32:05 pm
25.Bruintje.de.beerWed, 12 Sep 2018 2:42:01 pm
26.badmintonnersWed, 12 Sep 2018 3:00:08 pm
27.willy boy1Wed, 12 Sep 2018 3:02:04 pm
28.wandeltrakkerWed, 12 Sep 2018 3:43:55 pm
29.heksemie anirca62Wed, 12 Sep 2018 4:59:04 pm
30.sponskenWed, 12 Sep 2018 5:30:25 pm
31.prins6Wed, 12 Sep 2018 5:55:46 pm
32.de vliegenvangersWed, 12 Sep 2018 6:09:21 pm
33.snollebollekesWed, 12 Sep 2018 6:35:51 pm
34.daniella&julienWed, 12 Sep 2018 6:51:22 pm
35.KHU1Wed, 12 Sep 2018 7:57:38 pm
36.lowie49Wed, 12 Sep 2018 8:06:11 pm
37.de smileyWed, 12 Sep 2018 8:48:55 pm
38.MREBWed, 12 Sep 2018 9:02:46 pm
39.TORRAXWed, 12 Sep 2018 9:08:18 pm
40.yves2806Wed, 12 Sep 2018 9:30:25 pm
41.VOSPAMAWed, 12 Sep 2018 9:33:13 pm
42.ErannWed, 12 Sep 2018 10:12:23 pm
43.The LevellersWed, 12 Sep 2018 10:24:24 pm
44.tfxerWed, 12 Sep 2018 10:39:35 pm
45.LuintoSTWed, 12 Sep 2018 10:54:00 pm
46.Stylo & JoskeWed, 12 Sep 2018 11:18:46 pm
47.machpatWed, 12 Sep 2018 11:49:37 pm
48.OGTariWed, 12 Sep 2018 11:51:59 pm
49.rommarWed, 12 Sep 2018 11:58:47 pm
50.Joske0304699Thu, 13 Sep 2018 12:03:26 am
51.weba25Thu, 13 Sep 2018 12:08:31 am
52.haka1Thu, 13 Sep 2018 7:00:21 am
53.Tonmar47Thu, 13 Sep 2018 9:11:53 am
54.johannemieThu, 13 Sep 2018 9:38:45 am
55.ZwuzzeThu, 13 Sep 2018 11:56:14 am
56.Ricky50Thu, 13 Sep 2018 12:22:29 pm
57.egelshofThu, 13 Sep 2018 12:59:29 pm
58.timmy2730Thu, 13 Sep 2018 2:15:48 pm
59.R_JThu, 13 Sep 2018 4:25:33 pm
60.mikee67Thu, 13 Sep 2018 5:19:01 pm
61.GeellukamajaThu, 13 Sep 2018 7:41:33 pm
62.HEYTSEThu, 13 Sep 2018 8:16:31 pm
63.Scallie73Thu, 13 Sep 2018 10:36:48 pm
64.maguy15Thu, 13 Sep 2018 10:47:21 pm
65.tesslooFri, 14 Sep 2018 10:19:30 am
66.tinrafFri, 14 Sep 2018 3:14:36 pm
67.akelaindeweerFri, 14 Sep 2018 4:53:07 pm
68.kato3Fri, 14 Sep 2018 6:56:12 pm
69.liliremFri, 14 Sep 2018 7:20:09 pm
70.Dine =)Fri, 14 Sep 2018 9:13:51 pm
71.TeamYarDieFri, 14 Sep 2018 9:56:18 pm
72.casiswaryaFri, 14 Sep 2018 10:56:47 pm
73.sweetjoeSat, 15 Sep 2018 3:58:34 pm
74.famandusSat, 15 Sep 2018 4:03:31 pm
75.2donickySat, 15 Sep 2018 4:03:42 pm
76.golodhSat, 15 Sep 2018 9:50:54 pm
77.DenDulleSat, 15 Sep 2018 11:24:49 pm
78.DEN TROLSun, 16 Sep 2018 2:01:19 pm
79.tripper13Sun, 16 Sep 2018 8:06:25 pm
80.veromekeMon, 17 Sep 2018 8:46:06 am
81.CrapionMon, 17 Sep 2018 9:32:49 am
82.lankatrasMon, 17 Sep 2018 10:30:22 am
83.KLUPPELMon, 17 Sep 2018 6:13:35 pm
84.fravanoMon, 17 Sep 2018 9:14:51 pm
85.homeboyMon, 17 Sep 2018 9:28:43 pm
86.BergheboyMon, 17 Sep 2018 9:58:21 pm
87.Veerle TTue, 18 Sep 2018 12:29:10 am
88.tismooizoTue, 18 Sep 2018 11:39:44 am
89.PtitmamanNeroBelgiumTue, 18 Sep 2018 1:01:47 pm
90.geo_bartendanielleTue, 18 Sep 2018 3:33:48 pm
91.AladaubeTue, 18 Sep 2018 5:46:44 pm
92.De woesten en SmurfelTue, 18 Sep 2018 7:59:22 pm
93.tigerententeamTue, 18 Sep 2018 9:26:40 pm
94.Team_Griml0rdTue, 18 Sep 2018 10:34:19 pm
95.RudyDCWed, 19 Sep 2018 12:26:22 am